Weather History for Joplin, MO

Change the Weather History Date:

Monday, November 5, 2012

  Actual Average Record
Temperature  
Mean Temperature 49 °F 53 °F  
Max Temperature 54 °F 64 °F 81 °F (1978)
Min Temperature 43 °F 42 °F 19 °F (1982)
Degree Days  
Heating Degree Days 16 12  
Month to date heating degree days 57 58  
Since 1 July heating degree days 381 310  
Cooling Degree Days 0 1  
Month to date cooling degree days 0 5  
Year to date cooling degree days 2102 1696  
Moisture  
Dew Point 41 °F    
Average Humidity 80    
Maximum Humidity 93    
Minimum Humidity 61    
Precipitation  
Precipitation T in 0.14 in 1.39 in (1994)
Month to date precipitation T 0.66  
Year to date precipitation 35.65 40.61  
Snow  
Snow 0.00 in - - ()
Month to date snowfall 0.0  
Snow Depth 0.00 in    
Sea Level Pressure  
Sea Level Pressure 30.06 in    
Wind  
Wind Speed 11 mph (NW)    
Max Wind Speed 18 mph    
Max Gust Speed 23 mph    
Visibility 8 miles    
Events Rain    
T = Trace of Precipitation, MM = Missing Value Source: NWS Daily Summary

Daily Weather History Graph

Daily Weather History Graph

Search for Another Location

Airport:

Trip Planner

Search our weather history database for the weather conditions in past years. The results will help you decide how hot, cold, wet, or windy it might be!

Date:

Astronomy

Nov. 05, 2012 Rise Set
Actual Time 6:46 AM CST 5:15 PM CST
Civil Twilight 6:19 AM CST 5:42 PM CST
Nautical Twilight 5:48 AM CST 6:13 PM CST
Astronomical Twilight 5:18 AM CST 6:44 PM CST
Moon 10:53 PM CST (11/5) 12:06 PM CST (11/5)
Length of Visible Light 11h 23m
Length of Day
10h 28m
Waning Gibbous, 62% of the Moon is Illuminated
Nov 5
Waning Gibbous
Nov 6
Last Quarter
Nov 13
New
Nov 20
First Quarter
Nov 28
Full

Hourly Weather History & Observations

Time (CST) Temp. Windchill Dew Point Humidity Pressure Visibility Wind Dir Wind Speed Gust Speed Precip Events Conditions
12:53 AM 51.1 °F - 39.9 °F 66% 30.06 in 10.0 mi SSW 4.6 mph - N/A   Scattered Clouds
1:53 AM 52.0 °F - 41.0 °F 66% 30.04 in 10.0 mi South 3.5 mph - N/A   Overcast
2:53 AM 53.1 °F - 39.9 °F 61% 30.00 in 10.0 mi SSW 6.9 mph - N/A   Overcast
3:53 AM 54.0 °F - 41.0 °F 62% 29.98 in 10.0 mi SSW 11.5 mph - N/A   Overcast
4:53 AM 54.0 °F - 46.0 °F 75% 29.97 in 10.0 mi SW 15.0 mph - 0.00 in Rain Light Rain
5:53 AM 54.0 °F - 48.0 °F 80% 29.98 in 10.0 mi SW 12.7 mph - 0.00 in Rain Light Rain
6:53 AM 50.0 °F - 44.1 °F 80% 29.99 in 10.0 mi WSW 9.2 mph - 0.00 in Rain Light Rain
7:53 AM 52.0 °F - 42.1 °F 69% 30.01 in 10.0 mi WNW 9.2 mph - N/A   Partly Cloudy
8:53 AM 50.0 °F - 41.0 °F 71% 30.02 in 10.0 mi NW 13.8 mph - N/A   Clear
9:53 AM 50.0 °F - 42.1 °F 74% 30.03 in 10.0 mi NW 11.5 mph 19.6 mph N/A   Mostly Cloudy
10:53 AM 50.0 °F - 43.0 °F 77% 30.05 in 10.0 mi NW 13.8 mph - N/A   Overcast
11:53 AM 50.0 °F - 43.0 °F 77% 30.04 in 9.0 mi NW 15.0 mph 20.7 mph N/A   Overcast
12:53 PM 48.9 °F - 43.0 °F 80% 30.04 in 10.0 mi NW 16.1 mph - N/A   Overcast
1:53 PM 48.0 °F - 42.1 °F 80% 30.04 in 8.0 mi NNW 13.8 mph 23.0 mph N/A   Overcast
2:53 PM 48.0 °F - 41.0 °F 77% 30.04 in 10.0 mi NW 11.5 mph - N/A   Overcast
3:53 PM 46.9 °F - 41.0 °F 80% 30.05 in 10.0 mi WNW 13.8 mph - N/A   Overcast
4:53 PM 46.9 °F - 39.9 °F 77% 30.06 in 10.0 mi NW 12.7 mph - N/A   Overcast
5:53 PM 46.0 °F 40.2 °F 39.9 °F 79% 30.09 in 10.0 mi NW 12.7 mph - N/A   Overcast
6:07 PM 44.6 °F 38.4 °F 41.0 °F 87% 30.10 in 10.0 mi NNW 12.7 mph - N/A   Overcast
6:53 PM 45.0 °F 38.5 °F 41.0 °F 86% 30.11 in 10.0 mi NW 13.8 mph 19.6 mph N/A   Overcast
7:04 PM 44.6 °F 38.4 °F 41.0 °F 87% 30.10 in 10.0 mi NNW 12.7 mph 19.6 mph N/A   Overcast
7:53 PM 45.0 °F 41.8 °F 42.1 °F 90% 30.10 in 8.0 mi NNW 5.8 mph - N/A   Overcast
8:38 PM 44.6 °F 39.2 °F 42.8 °F 93% 30.10 in 8.0 mi NNW 10.4 mph - N/A   Overcast
8:53 PM 44.1 °F 39.0 °F 41.0 °F 89% 30.11 in 5.0 mi North 9.2 mph - 0.00 in Rain Light Rain
9:12 PM 44.6 °F 40.2 °F 41.0 °F 87% 30.10 in 6.0 mi North 8.1 mph - 0.00 in   Overcast
9:39 PM 44.6 °F 40.7 °F 41.0 °F 87% 30.10 in 7.0 mi North 6.9 mph - 0.00 in   Overcast
9:53 PM 44.1 °F 40.8 °F 41.0 °F 89% 30.11 in 6.0 mi North 5.8 mph - 0.00 in   Overcast
10:30 PM 44.6 °F 39.7 °F 41.0 °F 87% 30.10 in 5.0 mi North 9.2 mph - N/A   Overcast
10:53 PM 44.1 °F 39.5 °F 39.9 °F 85% 30.12 in 5.0 mi NNW 8.1 mph - N/A   Overcast
11:00 PM 44.6 °F 40.2 °F 39.2 °F 81% 30.11 in 5.0 mi NNW 8.1 mph - N/A   Overcast
11:11 PM 44.6 °F 39.7 °F 39.2 °F 81% 30.11 in 5.0 mi North 9.2 mph - N/A   Overcast
11:39 PM 44.6 °F 41.4 °F 39.2 °F 81% 30.10 in 6.0 mi North 5.8 mph - N/A   Overcast
11:46 PM 44.6 °F 41.4 °F 39.2 °F 81% 30.10 in 6.0 mi North 5.8 mph - N/A   Overcast
11:53 PM 44.1 °F 39.5 °F 39.9 °F 85% 30.11 in 6.0 mi North 8.1 mph - N/A   Overcast